Greenwood, SC

9:22 AM EDT on August 22, 2017 (GMT -0400)
Greenwood County

Weather History for KGRD - March, 2013

Change the Weather History Date:

Sunday, March 10, 2013

  Actual Average (KAND) Record (KAND)
Temperature  
Mean Temperature 52 °F -  
Max Temperature 69 °F 62 °F 104 °F (1998)
Min Temperature 36 °F 39 °F 25 °F (1957)
Degree Days  
Heating Degree Days 12    
Growing Degree Days 2 (Base 50)    
Moisture  
Dew Point 36 °F    
Average Humidity 54    
Maximum Humidity 86    
Minimum Humidity 24    
Precipitation  
Precipitation 0.00 in - - ()
Sea Level Pressure  
Sea Level Pressure 30.23 in    
Wind  
Wind Speed 2 mph (SE)    
Max Wind Speed 12 mph    
Max Gust Speed -    
Visibility 10 miles    
Events      
Averages and records for this station are not official NWS values.
T = Trace of Precipitation, MM = Missing Value Source: NWS Daily Summary

Daily Weather History Graph

Daily Weather History Graph

Search for Another Location

Airport or City:

Trip Planner

Search our weather history database for the weather conditions in past years. The results will help you decide how hot, cold, wet, or windy it might be!

Date:

Astronomy

Mar. 10, 2013 Rise Set
Actual Time 7:45 AM EDT 7:32 PM EDT
Civil Twilight 7:20 AM EDT 7:57 PM EDT
Nautical Twilight 6:51 AM EDT 8:26 PM EDT
Astronomical Twilight 6:22 AM EDT 8:55 PM EDT
Moon 6:43 AM EDT (3/10) 6:39 PM EDT (3/10)
Length of Visible Light 12h 37m
Length of Day
11h 47m
Waning Crescent, 2% of the Moon is Illuminated
Mar 10
Waning Crescent
Mar 11
New
Mar 19
First Quarter
Mar 27
Full
Apr 3
Last Quarter

Hourly Weather History & Observations

Time (EDT) Temp. Dew Point Humidity Pressure Visibility Wind Dir Wind Speed Gust Speed Precip Events Conditions
12:56 AM 39.9 °F 32.0 °F 73% 30.26 in 10.0 mi Calm Calm - N/A   Clear
1:56 AM 39.9 °F 32.0 °F 73% 30.26 in 10.0 mi Calm Calm - N/A   Clear
3:56 AM 37.0 °F 32.0 °F 82% 30.25 in 10.0 mi Calm Calm - N/A   Clear
4:56 AM 36.0 °F 30.9 °F 82% 30.24 in 10.0 mi Calm Calm - N/A   Clear
5:56 AM 36.0 °F 32.0 °F 86% 30.25 in 10.0 mi Calm Calm - N/A   Clear
6:56 AM 39.0 °F 35.1 °F 86% 30.24 in 10.0 mi Calm Calm - N/A   Clear
8:56 AM 43.0 °F 36.0 °F 76% 30.30 in 10.0 mi Calm Calm - N/A   Clear
9:56 AM 48.9 °F 37.0 °F 64% 30.30 in 10.0 mi Calm Calm - N/A   Clear
10:56 AM 55.9 °F 37.9 °F 51% 30.31 in 10.0 mi Calm Calm - N/A   Clear
11:30 AM 57.2 °F 37.4 °F 48% 30.29 in 2.0 mi Calm Calm - N/A   Haze
11:40 AM 59.0 °F 37.4 °F 45% 30.29 in 10.0 mi Calm Calm - N/A   Clear
11:56 AM 60.1 °F 37.0 °F 42% 30.27 in 10.0 mi SE 5.8 mph - N/A   Clear
12:56 PM 63.0 °F 36.0 °F 37% 30.25 in 10.0 mi SE 11.5 mph - N/A   Clear
1:56 PM 66.9 °F 35.1 °F 31% 30.22 in 10.0 mi SE 10.4 mph - N/A   Clear
2:56 PM 66.9 °F 36.0 °F 32% 30.19 in 10.0 mi ENE 6.9 mph - N/A   Clear
3:56 PM 69.1 °F 30.9 °F 24% 30.18 in 10.0 mi SE 9.2 mph - N/A   Clear
4:56 PM 69.1 °F 32.0 °F 25% 30.17 in 10.0 mi ESE 6.9 mph - N/A   Clear
5:56 PM 68.0 °F 32.0 °F 26% 30.15 in 10.0 mi SE 6.9 mph - N/A   Clear
6:56 PM 64.9 °F 35.1 °F 33% 30.16 in 10.0 mi SE 5.8 mph - N/A   Clear
7:56 PM 60.1 °F 37.0 °F 42% 30.18 in 10.0 mi Calm Calm - N/A   Clear
8:56 PM 57.0 °F 37.9 °F 49% 30.18 in 10.0 mi ESE 4.6 mph - N/A   Clear
9:56 PM 55.9 °F 37.9 °F 51% 30.18 in 10.0 mi ESE 5.8 mph - N/A   Clear
10:56 PM 54.0 °F 39.0 °F 57% 30.19 in 10.0 mi SE 3.5 mph - N/A   Clear
11:56 PM 51.1 °F 39.9 °F 66% 30.19 in 10.0 mi Calm Calm - N/A   Clear
12:56 AM 51.1 °F 43.0 °F 74% 30.18 in 10.0 mi SSE 3.5 mph - N/A   Clear